Location: *
(35.8942°N, 23.3025°E)
Time: 16:23:09
(UTC+00:00)

Gurwin Techsat 1B - Pass Details

Date: 09 April 2023
Orbit: 811 x 813 km, 98.9° (Epoch: 03 June)

Event Time Altitude Azimuth Distance (km) Brightness Sun altitude
Rises 02:18:53 0° 359° (N) 3,344 12.2 -20.8°
Reaches altitude 10° 02:21:34 10° 347° (NNW) 2,408 11.2 -20.3°
Maximum altitude 02:25:53 26° 293° (WNW) 1,564 9.7 -19.5°
Enters shadow 02:26:06 26° 289° (WNW) 1,567 9.7 -19.5°
